Houghton, MI

2:11 PM EDT on June 22, 2018 (GMT -0400)
Houghton County Memorial

Weather History for KCMX - September, 2017

Change the Weather History Date:

Wednesday, September 13, 2017

  Actual Average Record
Temperature  
Mean Temperature 67 °F -  
Max Temperature 82 °F 65 °F 87 °F (1952)
Min Temperature 53 °F 47 °F 31 °F (1953)
Cooling Degree Days 2    
Growing Degree Days 17 (Base 50)    
Moisture  
Dew Point 58 °F    
Average Humidity 73    
Maximum Humidity 90    
Minimum Humidity 56    
Precipitation  
Precipitation 0.00 in - - ()
Sea Level Pressure  
Sea Level Pressure 29.74 in    
Wind  
Wind Speed 4 mph (West)    
Max Wind Speed 10 mph    
Max Gust Speed -    
Visibility 10 miles    
Events      
Averages and records for this station are not official NWS values.
T = Trace of Precipitation, MM = Missing Value Source: NWS Daily Summary

Daily Weather History Graph

Daily Weather History Graph

Search for Another Location

Airport or City:

Astronomy

Sep. 13, 2017 Rise Set
Actual Time 7:29 AM EDT 8:09 PM EDT
Civil Twilight 6:58 AM EDT 8:40 PM EDT
Nautical Twilight 6:21 AM EDT 9:16 PM EDT
Astronomical Twilight 5:43 AM EDT 9:54 PM EDT
Moon 12:17 AM EDT (9/13) 3:41 PM EDT (9/13)
Length of Visible Light 13h 41m
Length of Day
12h 40m
Last Quarter, 46% of the Moon is Illuminated
Sep 13
Last Quarter
Sep 20
New
Sep 27
First Quarter
Oct 5
Full
Oct 12
Last Quarter

Hourly Weather History & Observations

Time (EDT) Temp. Heat Index Dew Point Humidity Pressure Visibility Wind Dir Wind Speed Gust Speed Precip Events Conditions
12:53 AM 54.0 °F - 51.1 °F 90% 29.81 in 10.0 mi Calm Calm - N/A   Clear
1:53 AM 64.0 °F - 48.9 °F 58% 29.81 in 10.0 mi SW 4.6 mph - N/A   Clear
2:53 AM 53.1 °F - 48.9 °F 86% 29.80 in 10.0 mi Calm Calm - N/A   Clear
3:53 AM 57.9 °F - 51.1 °F 78% 29.78 in 10.0 mi SSW 4.6 mph - N/A   Clear
4:53 AM 62.1 °F - 55.0 °F 78% 29.77 in 10.0 mi West 5.8 mph - N/A   Clear
5:53 AM 59.0 °F - 53.1 °F 81% 29.77 in 10.0 mi SW 3.5 mph - N/A   Clear
6:53 AM 55.9 °F - 52.0 °F 87% 29.77 in 10.0 mi Calm Calm - N/A   Clear
7:53 AM 57.9 °F - 54.0 °F 87% 29.77 in 10.0 mi SSW 4.6 mph - N/A   Clear
8:53 AM 62.1 °F - 55.9 °F 80% 29.77 in 10.0 mi Calm Calm - N/A   Clear
9:53 AM 66.0 °F - 59.0 °F 78% 29.76 in 10.0 mi Calm Calm - N/A   Clear
10:53 AM 71.1 °F - 61.0 °F 70% 29.75 in 10.0 mi South 4.6 mph - N/A   Clear
11:53 AM 77.0 °F - 64.0 °F 64% 29.74 in 10.0 mi Variable 4.6 mph - N/A   Clear
12:53 PM 79.0 °F - 64.0 °F 60% 29.73 in 10.0 mi NW 8.1 mph - N/A   Clear
1:53 PM 80.1 °F 81.5 °F 63.0 °F 56% 29.72 in 10.0 mi West 6.9 mph - N/A   Clear
2:53 PM 80.1 °F 81.5 °F 63.0 °F 56% 29.71 in 10.0 mi West 10.4 mph - N/A   Clear
3:53 PM 80.1 °F 81.5 °F 63.0 °F 56% 29.70 in 10.0 mi NW 6.9 mph - N/A   Clear
4:53 PM 81.0 °F 82.5 °F 64.0 °F 56% 29.70 in 10.0 mi NW 4.6 mph - N/A   Clear
5:53 PM 80.1 °F 81.7 °F 64.0 °F 58% 29.70 in 10.0 mi North 3.5 mph - N/A   Clear
6:53 PM 72.0 °F - 63.0 °F 73% 29.71 in 10.0 mi East 6.9 mph - N/A   Clear
7:53 PM 69.1 °F - 62.1 °F 78% 29.71 in 10.0 mi East 5.8 mph - N/A   Clear
8:53 PM 66.9 °F - 60.1 °F 79% 29.72 in 10.0 mi ENE 5.8 mph - N/A   Clear
9:53 PM 66.0 °F - 60.1 °F 81% 29.73 in 10.0 mi East 5.8 mph - N/A   Clear
10:22 PM 64.9 °F - 59.0 °F 81% 29.73 in 10.0 mi East 5.8 mph - N/A   Partly Cloudy
10:53 PM 66.0 °F - 59.0 °F 78% 29.72 in 10.0 mi ENE 8.1 mph - N/A   Clear
11:53 PM 64.9 °F - 57.9 °F 78% 29.73 in 10.0 mi ENE 5.8 mph - N/A   Clear